ICT,Max TemperatureF,Mean TemperatureF,Min TemperatureF,Max Dew PointF,MeanDew PointF,Min DewpointF,Max Humidity, Mean Humidity, Min Humidity, Max Sea Level PressureIn, Mean Sea Level PressureIn, Min Sea Level PressureIn, Max VisibilityMiles, Mean VisibilityMiles, Min VisibilityMiles, Max Wind SpeedMPH, Mean Wind SpeedMPH, Max Gust SpeedMPH,PrecipitationIn, CloudCover, Events, WindDirDegrees
2012-12-1,87,78,69,73,71,66,94,81,49,29.95,29.88,29.80,6,6,2,5,2,,0.00,4,Rain,331
2012-12-2,84,78,71,73,71,70,94,84,62,29.98,29.92,29.86,6,5,1,9,2,,0.00,6,,242
2012-12-3,84,76,69,70,68,64,94,75,51,30.01,29.93,29.86,6,6,5,4,1,,0.00,5,,22
2012-12-4,84,76,68,72,70,66,94,79,58,29.98,29.88,29.80,6,5,1,7,1,,0.00,4,,186
2012-12-5,84,72,60,72,63,59,94,72,45,30.01,29.93,29.86,6,6,6,5,2,,0.00,2,,26
2012-12-6,84,73,62,68,63,61,94,70,48,30.01,29.90,29.80,6,6,6,6,3,,0.00,2,,53
2012-12-7,84,74,64,66,62,59,94,67,42,29.98,29.89,29.80,6,6,3,7,4,,0.00,2,,228
2012-12-8,82,72,62,66,63,61,94,75,51,30.01,29.91,29.83,6,6,3,8,1,,0.00,3,,155
2012-12-9,82,71,60,66,62,57,94,75,42,29.98,29.89,29.80,6,4,0,6,1,,0.00,3,Fog,207
2012-12-10,84,70,55,63,57,50,100,66,32,30.01,29.92,29.83,6,5,2,4,1,,0.00,1,,350
2012-12-11,82,70,57,63,59,55,94,70,47,30.04,29.93,29.86,6,6,6,5,1,,0.00,1,,95
2012-12-12,84,72,60,68,64,59,94,75,51,30.01,29.94,29.86,6,5,2,5,1,,0.00,2,,160
2012-12-13,84,74,64,68,65,63,94,79,48,30.06,29.98,29.92,6,4,0,4,2,,0.00,3,Fog,7
2012-12-14,84,72,60,66,64,59,100,73,45,30.09,30.01,29.95,6,5,1,4,1,,0.00,1,,80
2012-12-15,82,70,59,64,61,57,94,69,42,30.09,29.99,29.92,6,6,6,4,1,,0.00,1,,33
2012-12-16,86,70,53,61,56,50,94,63,32,30.09,30.00,29.92,,,,4,2,,0.00,,,45
2012-12-17,82,68,53,59,56,52,94,68,37,30.04,29.95,29.86,,,,2,1,,0.00,,,20
2012-12-18,82,68,55,61,59,54,94,68,42,30.09,30.00,29.92,6,6,6,7,2,,0.00,2,,34
2012-12-19,82,68,55,66,62,54,94,75,51,30.01,29.91,29.80,6,6,6,8,2,,0.00,1,,178
2012-12-20,86,73,60,68,62,57,100,73,37,29.98,29.89,29.83,6,3,0,4,1,,0.00,2,Fog,-1
2012-12-21,84,72,59,63,59,54,94,69,35,30.01,29.93,29.86,5,4,3,2,1,,0.00,,,10
2012-12-22,84,70,55,63,59,54,94,70,39,30.01,29.94,29.86,6,4,1,5,1,,0.00,2,,43
2012-12-23,80,70,59,63,61,57,100,72,51,30.09,30.01,29.95,6,6,6,6,1,,0.00,4,,12
2012-12-24,78,71,64,64,62,61,94,73,54,30.09,29.99,29.77,6,6,6,6,2,,0.00,6,,55
2012-12-25,80,71,62,64,62,59,94,70,48,30.04,29.95,29.86,6,6,1,7,2,,0.00,4,,137
2012-12-26,80,72,64,64,62,59,94,73,48,30.01,29.93,29.86,6,5,1,7,2,,0.00,4,,119
2012-12-27,84,72,59,64,62,57,94,73,45,30.04,29.92,29.80,6,4,0,5,1,,0.00,2,Fog,138
2012-12-28,86,74,62,66,64,61,94,69,43,29.98,29.89,29.80,6,5,2,7,1,,0.00,1,,74
2012-12-29,87,74,60,64,62,57,94,68,37,29.98,29.90,29.83,6,5,0,6,1,,0.00,1,Fog,88
2012-12-30,86,73,60,66,63,57,94,70,45,29.98,29.90,29.83,6,6,6,7,2,,0.00,2,,115
2012-12-31,82,73,64,66,64,63,94,69,54,29.98,29.88,29.80,6,6,3,7,1,,0.00,5,,157